Regional Weather Roundup
Issued by NWS Kansas City/Pleasant Hill, MO

Home | Current Version | Previous Version | Graphics & Text | Print | Product List | Glossary Off
Versions: 1 2 3 4 5 6 7 8 9 10 11 12 13 14 15 16 17 18 19 20 21 22 23 24 25 26 27 28 29 30 31 32 33 34 35 36 37 38 39 40 41 42 43 44 45 46 47 48 49 50

000
ASUS43 KEAX 260710
RWREAX

WEATHER ROUNDUP FOR EASTERN KANSAS AND NORTHWEST MISSOURI
NATIONAL WEATHER SERVICE KANSAS CITY/PLEASANT HILL MO
200 AM CDT SAT MAY 26 2018

KSZ040-057-103>105-MOZ028-029-037-043-260800-
...KANSAS CITY METROPOLITAN AREA...

CITY           SKY/WX    TMP DP  RH WIND       PRES   REMARKS
K.C. INTL      CLEAR     70  67  90 SW8       29.81R
K.C. DOWNTOWN  CLEAR     74  65  73 S7        29.79S
LEES SUMMIT    CLEAR     72  68  87 S7        29.82S
OLATHE - IXD   CLEAR     70  67  90 S6        29.83S
OLATHE - OJC   CLEAR     69  67  93 S6        29.82S
LAWRENCE       CLEAR     70  68  93 SE3       29.80S

$$

MOZ001>008-011>017-020>025-030>033-038>040-044>046-053-054-260800-
...NORTHERN AND CENTRAL MISSOURI...

CITY           SKY/WX    TMP DP  RH WIND       PRES   REMARKS
ST. JOSEPH     CLEAR     71  67  87 S6        29.78S
MOSBY          SUNNY     70  64  83 CALM      29.80F
WARRENSBURG    CLOUDY    70  66  88 S6        29.83S
WHITEMAN AFB   CLOUDY    68  67  94 SW8       29.79S
CLINTON        CLEAR     70  70 100 S3        29.84F
SEDALIA        CLOUDY    71  68  90 SW7       29.84S
WARSAW         NOT AVBL
CHILLICOTHE      N/A     69  67  93 S5        29.80F
KIRKSVILLE     CLEAR     70  68  93 SW5       29.81S

$$

MOZ041-047>049-056>058-063>065-088>090-097-260800-
...EASTERN AND SOUTHERN MISSOURI...

CITY           SKY/WX    TMP DP  RH WIND       PRES   REMARKS
ST. LOUIS INTL CLOUDY    73  68  84 SW6       29.83F
SPIRIT OF STL  CLOUDY    70  69  97 CALM      29.81F
COLUMBIA       CLOUDY    69  66  90 SW6       29.82F
JEFFERSON CITY CLOUDY    70  68  93 E5        29.81F
ROLLA          CLOUDY    67  64  90 SW9       29.86F
OSAGE BEACH    MOCLDY    66  65  96 SE5       29.85F
SPRINGFIELD    MOCLDY    67  64  90 S9        29.87F
BRANSON        PTCLDY    64  64 100 CALM      29.89F
JOPLIN         CLEAR     69  65  86 SE5       29.86F
WEST PLAINS    CLOUDY    67  64  90 W3        29.89F

$$

IAZ060-094-KSZ022-034>040-054-083-096-NEZ052-066-093-260800-
...KANSAS...SOUTHEAST NEBRASKA AND IOWA...

CITY           SKY/WX    TMP DP  RH WIND       PRES   REMARKS
TOPEKA         CLEAR     74  69  85 SW5       29.80S
MANHATTAN      CLEAR     69  65  86 SW3       29.81S
EMPORIA        CLEAR     66  63  90 S8        29.84S
CHANUTE        CLEAR     67  66  97 S5        29.85S
WICHITA        CLEAR     68  64  87 SW3       29.84F
OMAHA          PTCLDY    70  63  78 E3        29.74S
LINCOLN        CLEAR     73  58  59 CALM      29.78R
FALLS CITY     MOCLDY    75  65  70 SW7       29.76F
LAMONI         PTCLDY    71  65  81 S9        29.77F
DES MOINES     PTCLDY    74  66  76 SW5       29.73S

$$




USA.gov is the U.S. government's official web portal to all federal, state and local government web resources and services.